"Pseudo-MPEC" for P22oO2i

Created 2026 Aug 8 1:35:08 UT using Find_Orb

Click here for an explanation of pseudo-MPECs

 
 Astrometry: 
     P22oO2i 0C2026 08 03.32352616 22 02.631-00 34 31.53   ~87L5 22.21GVNEOCPF52
     P22oO2i 0C2026 08 03.32621516 22 02.977-00 34 29.29   ~87L5 21.48GVNEOCPF52
     P22oO2i*0C2026 08 04.28952216 24 27.700-00 21 40.59   ~848o 21.40wXNEOCPF52
     P22oO2i 0C2026 08 04.30117116 24 29.322-00 21 31.40   ~848o 21.81wXNEOCPF52
     P22oO2i 0C2026 08 04.31285816 24 30.964-00 21 22.21   ~848o 21.44wXNEOCPF52
     P22oO2i 0C2026 08 04.38473216 24 41.128-00 20 25.15   ~84Go 22.09GVNEOCPF52
     P22oO2i 0C2026 08 04.38536516 24 41.209-00 20 24.59   ~84Go 21.69GVNEOCPF52
     P22oO2i KC2026 08 05.11822516 26 35.30 -00 10 58.9    ~853Z 21.7 GVNEOCPH21
     P22oO2i KC2026 08 05.12111316 26 35.69 -00 10 56.6    ~853Z 21.9 GVNEOCPH21
     P22oO2i KC2026 08 05.12400016 26 36.12 -00 10 54.3    ~853Z 22.2 GVNEOCPH21
     P22oO2i 0B2026 08 05.84784516 28 30.156-00 00 58.20   ~85NZ 21.8 GWNEOCPM21
     P22oO2i 0B2026 08 07.82667716 33 55.965+00 23 59.48   ~8815 22.0 GWNEOCPM21

Station data:
(F52) Pan-STARRS 2, Haleakala  (N20.707382 W156.255910)  US/Hawaii.
   Observers J. Herman, T. Lowe, P. Minguez, A. Schultz, I. Smith. Measurers
   K. Chambers, T. de Boer, J. Fairlamb, H. Gao, M. Huber, C.-C. Lin, E.
   Magnier, Y. Ramanjooloo, R. Wainscoat, R. Weryk. 1.8-m Ritchey-Chrétien +
   CCD.
(H21) Astronomical Research Observatory, Westfield  (N39.483054 W87.968270)
   US/Illinois.  Observer R. Holmes. Measurers S. Foglia, L. Buzzi, T.
   Linder, R. Holmes. 0.40-m f/5.32 astrograph + CCD.
(M21) Schiaparelli Southern Observatory, Hakos  (S23.236549 E16.361440)
   Namibia.  Observers A. Aletti, F. Bellini, L. Buzzi, G. Galli. Measurer L.
   Buzzi. 0.36-m f/8.4 reflector + CCD.

Orbital elements:  P22oO2i
   Perihelion 2026 Aug 23.347418 +/- 0.0151 TT =  8:20:16.9 (JD 2461275.847418)
Epoch 2026 Aug  7.0 TT = JDT 2461259.5   Earth MOID: 0.1417   Ma: 0.0262
M 354.311434857 +/- 0.09            (J2000 ecliptic)             AutoNEOCP
n   0.347979421 +/- 0.00573         Peri.   71.662351 +/- 0.052
a   2.001859875 +/- 0.022           Node   247.720828 +/- 0.08
e   0.44347772 +/- 0.00551          Incl.    5.864773 +/- 0.050
P   2.83237                H 22.62  G  0.15   U  9.3
q 1.114079608 +/- 0.0012    Q 2.889640142 +/- 0.0427
From 12 observations 2026 Aug. 3-7; mean residual 0".13
Residuals in arcseconds: 
260803 F52  .12+  .02-    260804 F52  .18+  .12-    260805 H21  .39-  .07+    
260803 F52  .16-  .05+    260804 F52  .02+  .03+    260805 H21  .26-  .12+    
260804 F52  .03+  .01-    260804 F52  .13-  .08+    260805 M21  .17+  .13-    
260804 F52  .03+  .05-    260805 H21  .08+  .02+    260807 M21  .01-  .04+    

Ephemerides (geocentric):
Date (UTC) HH   RA             Dec           delta  r     elong  mag " sig PA
---- --------  ------------   ------------  ------ ------ -----  --- --------
2026 08 08 02  16 34 40.384   +00 26 55.89  .25370 1.1263 110.0 22.0 .160 151
2026 08 08 03  16 34 47.500   +00 27 26.69  .25366 1.1262 110.0 22.0 .164 152
2026 08 08 04  16 34 54.625   +00 27 57.46  .25363 1.1261 110.0 22.0 .167 153
2026 08 08 05  16 35 01.758   +00 28 28.22  .25359 1.1261 110.0 22.0 .170 155
2026 08 08 06  16 35 08.899   +00 28 58.94  .25356 1.1260 109.9 22.0 .173 156
2026 08 08 07  16 35 16.050   +00 29 29.65  .25352 1.1260 109.9 22.0 .177 157
2026 08 08 08  16 35 23.209   +00 30 00.33  .25348 1.1259 109.9 22.0 .180 158
2026 08 08 09  16 35 30.376   +00 30 30.98  .25345 1.1258 109.9 22.0 .184 159
2026 08 08 10  16 35 37.552   +00 31 01.61  .25341 1.1258 109.9 22.0 .188 160
2026 08 08 11  16 35 44.737   +00 31 32.22  .25338 1.1257 109.9 22.0 .191 161
2026 08 08 12  16 35 51.930   +00 32 02.81  .25334 1.1256 109.9 22.0 .195 162
2026 08 08 13  16 35 59.132   +00 32 33.37  .25331 1.1256 109.9 22.0 .199 163
2026 08 08 14  16 36 06.343   +00 33 03.90  .25327 1.1255 109.9 22.0 .203 164
2026 08 08 15  16 36 13.562   +00 33 34.41  .25323 1.1254 109.9 22.0 .207 165
2026 08 08 16  16 36 20.790   +00 34 04.90  .25320 1.1254 109.8 22.0 .212 165
2026 08 08 17  16 36 28.027   +00 34 35.37  .25316 1.1253 109.8 22.0 .216 166
2026 08 08 18  16 36 35.272   +00 35 05.81  .25313 1.1252 109.8 22.0 .220 167
2026 08 08 19  16 36 42.525   +00 35 36.22  .25309 1.1252 109.8 22.0 .224 168
2026 08 08 20  16 36 49.788   +00 36 06.61  .25306 1.1251 109.8 22.0 .229 168
2026 08 08 21  16 36 57.059   +00 36 36.98  .25302 1.1251 109.8 22.0 .233 169
2026 08 08 22  16 37 04.338   +00 37 07.33  .25299 1.1250 109.8 22.0 .238 170
2026 08 08 23  16 37 11.626   +00 37 37.65  .25295 1.1249 109.8 22.0 .242 170
2026 08 09 00  16 37 18.923   +00 38 07.94  .25291 1.1249 109.8 22.0 .247 171
2026 08 09 01  16 37 26.229   +00 38 38.22  .25288 1.1248 109.8 22.0 .252 172
2026 08 09 02  16 37 33.543   +00 39 08.47  .25284 1.1247 109.7 22.0 .257 172
2026 08 09 03  16 37 40.866   +00 39 38.69  .25281 1.1247 109.7 22.0 .261 173
2026 08 09 04  16 37 48.197   +00 40 08.89  .25277 1.1246 109.7 22.0 .266 173
2026 08 09 05  16 37 55.537   +00 40 39.07  .25274 1.1246 109.7 22.0 .271 174
2026 08 09 06  16 38 02.886   +00 41 09.22  .25270 1.1245 109.7 22.0 .276 174
2026 08 09 07  16 38 10.243   +00 41 39.35  .25267 1.1244 109.7 22.0 .281 175
2026 08 09 08  16 38 17.609   +00 42 09.45  .25263 1.1244 109.7 22.0 .286 175
2026 08 09 09  16 38 24.984   +00 42 39.53  .25260 1.1243 109.7 22.0 .291 176
2026 08 09 10  16 38 32.367   +00 43 09.59  .25256 1.1243 109.7 22.0 .297 176
2026 08 09 11  16 38 39.759   +00 43 39.62  .25253 1.1242 109.7 22.0 .302 177
2026 08 09 12  16 38 47.160   +00 44 09.63  .25249 1.1241 109.6 22.0 .307 177
2026 08 09 13  16 38 54.569   +00 44 39.62  .25246 1.1241 109.6 22.0 .312 177
2026 08 09 14  16 39 01.987   +00 45 09.58  .25242 1.1240 109.6 22.0 .318 178
2026 08 09 15  16 39 09.414   +00 45 39.52  .25239 1.1240 109.6 22.0 .323 178
2026 08 09 16  16 39 16.849   +00 46 09.43  .25235 1.1239 109.6 22.0 .329 179
2026 08 09 17  16 39 24.293   +00 46 39.32  .25232 1.1238 109.6 22.0 .334 179
2026 08 09 18  16 39 31.746   +00 47 09.18  .25229 1.1238 109.6 22.0 .340 179
2026 08 09 19  16 39 39.207   +00 47 39.02  .25225 1.1237 109.6 22.0 .345   0
2026 08 09 20  16 39 46.677   +00 48 08.84  .25222 1.1237 109.6 22.0 .351   0
2026 08 09 21  16 39 54.156   +00 48 38.64  .25218 1.1236 109.6 22.0 .356   0
2026 08 09 22  16 40 01.643   +00 49 08.40  .25215 1.1235 109.6 22.0 .362   1
2026 08 09 23  16 40 09.139   +00 49 38.15  .25211 1.1235 109.5 22.0 .368   1
2026 08 10 00  16 40 16.644   +00 50 07.87  .25208 1.1234 109.5 22.0 .373   1
2026 08 10 01  16 40 24.157   +00 50 37.57  .25204 1.1234 109.5 22.0 .379   1